[[{"header":{"parameterUnit":"m.s-1","parameterCategory":1,"la1":30.2991,"la2":30.254,"lo1":-89.0895,"lo2":-89.0444,"dy":0.0017,"dx":0.0017,"nx":28,"ny":28,"refTime":"2024-05-21T21:00:00:Z","depth":0,"parameterNumber":2,"parameterNumberName":"U-component_of_WINDS"},"data":[0,0,0,0,0,0,0,0,0,0,0,0,0,0,0,0,0,0,0,0,0,0,0,0,0,0,0,0,0,0,0,0,0,0,0,0,0,0,0,0,0,0,0,0,0,0,0,0,0,0,0,0,0,0,0,0,0,0,-1.6589,-1.6589,0,-1.66,-1.6601,-1.6601,-1.6575,-1.6574,-1.6573,-1.6572,-1.6584,-1.6585,-1.6586,0,0,0,0,0,0,0,0,0,0,0,0,0,-1.6546,-1.6547,-1.6589,-1.6589,-1.659,-1.66,-1.6601,-1.6601,-1.6575,-1.6574,-1.6573,-1.6572,-1.6584,-1.6585,-1.6586,0,0,0,0,0,0,0,0,0,0,0,0,0,-1.6562,-1.6547,-1.6589,-1.6578,-1.6577,-1.66,-1.6601,-1.6601,-1.6575,-1.6574,-1.6572,-1.6571,-1.6583,-1.6585,-1.6586,-1.6622,0,0,-1.6591,-1.6592,0,0,0,0,0,0,0,0,-1.6561,-1.6563,-1.6579,-1.6579,-1.6578,-1.6585,-1.659,-1.6608,-1.6575,-1.6576,-1.6572,-1.6571,-1.6585,-1.6587,-1.6592,-1.6622,-1.6623,-1.6592,-1.6593,-1.6593,-1.6594,0,0,0,0,0,0,0,-1.656,-1.6563,-1.6594,-1.658,-1.6579,-1.6572,-1.6573,-1.6593,-1.6587,-1.6576,-1.6574,-1.6575,-1.6585,-1.659,-1.6592,-1.6623,-1.6592,-1.6593,-1.6594,-1.6595,-1.6682,-1.6684,0,0,0,0,0,0,-1.656,-1.6562,-1.6593,-1.6594,-1.6566,-1.6574,-1.6575,-1.6584,-1.6587,-1.6586,-1.6576,-1.6574,-1.6588,-1.659,-1.6592,-1.6633,-1.6593,-1.6595,-1.6596,-1.6681,-1.6683,-1.6684,0,0,0,0,0,0,-1.6559,-1.6563,-1.6593,-1.6577,-1.6581,-1.6576,-1.6586,-1.6585,-1.659,-1.6588,-1.6587,-1.6583,-1.6587,-1.659,-1.6614,-1.6633,-1.6596,-1.6597,-1.668,-1.6682,-1.6684,-1.6716,0,0,0,0,0,0,-1.6558,-1.6563,-1.6576,-1.6578,-1.6582,-1.6615,-1.6587,-1.6586,-1.6593,-1.659,-1.6594,-1.6593,-1.6586,-1.6612,-1.6616,-1.6635,-1.6598,-1.6678,-1.668,-1.6683,-1.6713,-1.6719,-1.6723,0,0,0,0,0,-1.6557,-1.6585,-1.6577,-1.6581,-1.6598,-1.6616,-1.6618,-1.661,-1.6595,-1.6608,-1.6606,-1.6593,-1.6631,-1.6615,-1.6619,-1.6639,-1.6677,-1.668,-1.6683,-1.6711,-1.6717,-1.6723,0,0,0,0,0,0,-1.6586,-1.6585,-1.6576,-1.6606,-1.6611,-1.6612,-1.6628,-1.6617,-1.6627,-1.6624,-1.6613,-1.6614,-1.6641,-1.6642,-1.6625,-1.6673,-1.6651,-1.6655,-1.6671,-1.6677,-1.6682,-1.6681,-1.66,0,0,0,0,0,-1.6596,-1.661,-1.6609,-1.6635,-1.6638,-1.6633,-1.664,-1.6633,-1.6639,-1.6641,-1.6641,-1.6647,-1.666,-1.6669,-1.6681,-1.6713,-1.6713,-1.6729,-1.6734,-1.6738,-1.6742,-1.6759,-1.6765,-1.6694,-1.6694,-1.6694,0,0,-1.6616,-1.6617,-1.6627,-1.6641,-1.6644,-1.666,-1.6635,-1.6652,-1.6664,-1.6643,-1.6667,-1.6667,-1.6673,-1.6701,-1.6714,-1.6703,-1.6761,-1.6742,-1.6745,-1.6747,-1.6763,-1.6769,-1.6775,-1.6696,-1.6696,-1.6696,0,0,-1.6661,-1.6664,-1.6686,-1.669,-1.6695,-1.6691,-1.6697,-1.6699,-1.6698,-1.6721,-1.6706,-1.672,-1.6743,-1.6747,-1.6752,-1.6799,-1.6787,-1.6804,-1.6831,-1.6848,-1.6853,-1.6858,-1.6875,-1.6881,-1.6807,-1.6807,-1.6807,0,-1.6686,-1.6708,-1.6699,-1.6717,-1.6723,-1.6706,-1.6728,-1.6732,-1.6741,-1.6746,-1.6734,-1.6762,-1.6765,-1.6794,-1.6806,-1.6811,-1.6816,-1.6803,-1.6853,-1.6858,-1.6863,-1.6878,-1.6885,-1.6809,-1.6809,-1.6809,-1.6809,0,-1.6739,-1.6755,-1.6772,-1.6781,-1.6789,-1.6809,-1.6803,-1.6812,-1.6805,-1.6802,-1.6826,-1.6829,-1.6841,-1.6847,-1.684,-1.6876,-1.6869,-1.6855,-1.6833,-1.6871,-1.6886,-1.6892,-1.6812,-1.6811,-1.6811,-1.681,0,0,-1.6803,-1.6806,-1.6812,-1.6816,-1.682,-1.6832,-1.6852,-1.6864,-1.6872,-1.6879,-1.6895,-1.6915,-1.6902,-1.6908,-1.6901,-1.6916,-1.6953,-1.6901,-1.6901,-1.691,-1.6992,-1.7002,-1.7009,-1.6945,-1.6946,-1.6947,-1.6992,0,-1.6847,-1.688,-1.6872,-1.6905,-1.692,-1.6903,-1.692,-1.6925,-1.6923,-1.6935,-1.6933,-1.6947,-1.6929,-1.6933,-1.6947,-1.6946,-1.6969,-1.6942,-1.696,-1.6961,-1.6959,-1.7017,-1.7028,-1.707,-1.6997,-1.6998,-1.6999,0,-1.6904,-1.6912,-1.6947,-1.6949,-1.6954,-1.697,-1.698,-1.6991,-1.6996,-1.6994,-1.7001,-1.6991,-1.701,-1.6988,-1.7015,-1.6997,-1.7004,-1.7004,-1.7005,-1.7007,-1.6982,-1.702,-1.7083,-1.7089,-1.7008,-1.7007,-1.7007,0,-1.6947,-1.6967,-1.699,-1.6994,-1.6997,-1.7008,-1.701,-1.7013,-1.7021,-1.703,-1.7034,-1.7045,-1.7051,-1.706,-1.7053,-1.7038,-1.7081,-1.7058,-1.708,-1.708,-1.7089,-1.7089,-1.7154,-1.7094,-1.7094,-1.7094,-1.7094,0,-1.6997,-1.7019,-1.7009,-1.7024,-1.7048,-1.7038,-1.7062,-1.7062,-1.7065,-1.7079,-1.7065,-1.7079,-1.7069,-1.7082,-1.7077,-1.71,-1.7102,-1.7101,-1.71,-1.7102,-1.7102,-1.7107,-1.7103,-1.7095,-1.7095,-1.7095,-1.7094,0,-1.7049,-1.7044,-1.7068,-1.7069,-1.7069,-1.7087,-1.7087,-1.7101,-1.7098,-1.7116,-1.7119,-1.7115,-1.7129,-1.7123,-1.7139,-1.7135,-1.7164,-1.7159,-1.7162,-1.7161,-1.7182,-1.718,-1.7253,-1.7262,-1.7196,-1.7196,-1.7197,0,-1.7082,-1.7098,-1.7101,-1.7109,-1.7111,-1.7125,-1.7132,-1.7123,-1.7132,-1.7138,-1.7151,-1.7164,-1.7174,-1.7197,-1.7195,-1.7207,-1.7202,-1.7226,-1.7203,-1.7206,-1.7202,-1.7201,-1.7202,-1.7231,-1.7232,-1.7232,-1.7233,0,-1.7141,-1.7137,-1.7148,-1.7158,-1.7167,-1.7175,-1.7181,-1.7189,-1.718,-1.719,-1.7205,-1.7212,-1.7227,-1.724,-1.7251,-1.7252,-1.7241,-1.724,-1.7245,-1.7248,-1.725,-1.7249,-1.7175,-1.7238,-1.7238,-1.7237,-1.7237,-1.7237,-1.7184,-1.7198,-1.7201,-1.7214,-1.7218,-1.7224,-1.7236,-1.7235,-1.7246,-1.7258,-1.7252,-1.7269,-1.7273,-1.7285,-1.7289,-1.7302,-1.7292,-1.73,-1.7302,-1.7304,-1.7307,-1.7248,-1.7303,-1.7303,-1.7303,-1.7303,-1.7303,0,-1.7242,-1.7243,-1.7255,-1.7264,-1.7274,-1.7262,-1.7269,-1.7278,-1.7293,-1.7298,-1.7307,-1.7324,-1.7336,-1.7335,-1.7347,-1.7357,-1.7353,-1.7361,-1.736,-1.736,-1.7315,-1.7309,-1.7364,-1.7364,-1.7364,-1.7364,-1.7364,-1.7364,-1.7273,-1.7296,-1.7292,-1.7316,-1.7317,-1.7333,-1.7338,-1.7344,-1.7347,-1.7366,-1.7376,-1.7375,-1.7378,-1.7389,-1.74,-1.74,-1.7405,-1.7415,-1.7412,-1.737,-1.7364,-1.7358,-1.7352,-1.7416,-1.7416,-1.7457,-1.7457,-1.7458]},{"header":{"parameterUnit":"m.s-1","parameterCategory":1,"la1":30.2991,"la2":30.254,"lo1":-89.0895,"lo2":-89.0444,"dy":0.0017,"dx":0.0017,"nx":28,"ny":28,"refTime":"2024-05-21T21:00:00:Z","depth":0,"parameterNumber":3,"parameterNumberName":"V-component_of_WINDS"},"data":[0,0,0,0,0,0,0,0,0,0,0,0,0,0,0,0,0,0,0,0,0,0,0,0,0,0,0,0,0,0,0,0,0,0,0,0,0,0,0,0,0,0,0,0,0,0,0,0,0,0,0,0,0,0,0,0,0,0,5.3609,5.361,0,5.3682,5.3683,5.3684,5.3618,5.3615,5.3612,5.361,5.368,5.3685,5.3689,0,0,0,0,0,0,0,0,0,0,0,0,0,5.3408,5.3412,5.3609,5.361,5.3611,5.3682,5.3683,5.3684,5.3618,5.3615,5.3612,5.3609,5.3679,5.3684,5.3689,0,0,0,0,0,0,0,0,0,0,0,0,0,5.3489,5.3413,5.3609,5.3587,5.3586,5.3682,5.3683,5.3684,5.3619,5.3615,5.3611,5.3607,5.3677,5.3684,5.369,5.3811,0,0,5.371,5.3713,0,0,0,0,0,0,0,0,5.3485,5.3497,5.3589,5.3589,5.3587,5.3637,5.3638,5.3726,5.362,5.3606,5.361,5.3605,5.3669,5.3676,5.3698,5.3814,5.3817,5.3711,5.3715,5.3718,5.3719,0,0,0,0,0,0,0,5.3479,5.3493,5.3638,5.3591,5.3589,5.3571,5.3579,5.3654,5.3659,5.3607,5.3602,5.3612,5.3668,5.3692,5.3699,5.3818,5.3711,5.3716,5.372,5.3723,5.4033,5.4037,0,0,0,0,0,0,5.3476,5.3489,5.3635,5.364,5.3525,5.3578,5.3586,5.3625,5.3658,5.3659,5.3615,5.3609,5.3683,5.3692,5.3702,5.3843,5.3717,5.3724,5.3727,5.4028,5.4034,5.4038,0,0,0,0,0,0,5.3472,5.349,5.3632,5.3563,5.358,5.3586,5.363,5.3628,5.3653,5.3664,5.3664,5.364,5.368,5.3692,5.3783,5.3844,5.3727,5.3732,5.4023,5.403,5.4036,5.4128,0,0,0,0,0,0,5.3467,5.3489,5.3536,5.3565,5.3584,5.3715,5.3634,5.3633,5.3665,5.3657,5.3687,5.3689,5.3678,5.3774,5.379,5.3851,5.3738,5.4018,5.4026,5.4034,5.4119,5.4136,5.4151,0,0,0,0,0,5.346,5.3559,5.3539,5.3557,5.3644,5.3719,5.373,5.3717,5.367,5.3716,5.3723,5.3688,5.3835,5.3784,5.3801,5.3865,5.4014,5.4024,5.4033,5.4112,5.4133,5.4151,0,0,0,0,0,0,5.3537,5.3562,5.3541,5.3652,5.3684,5.3708,5.3766,5.374,5.3784,5.3775,5.3755,5.3762,5.3858,5.3871,5.3813,5.3982,5.3917,5.393,5.3971,5.3991,5.4006,5.4001,5.3743,0,0,0,0,0,5.3567,5.3628,5.3646,5.3743,5.376,5.3761,5.3793,5.378,5.3811,5.3824,5.3838,5.3869,5.3921,5.3957,5.4006,5.412,5.4125,5.4173,5.4189,5.4202,5.4214,5.4272,5.4293,5.407,5.407,5.407,0,0,5.363,5.3651,5.3691,5.3759,5.3782,5.3843,5.3772,5.3841,5.3885,5.3834,5.3921,5.3932,5.3964,5.4067,5.4113,5.4081,5.4276,5.4214,5.4225,5.4229,5.4284,5.4306,5.4324,5.4077,5.4075,5.4074,0,0,5.3775,5.3798,5.388,5.3905,5.394,5.394,5.3959,5.3987,5.3993,5.408,5.4042,5.4093,5.4186,5.421,5.4234,5.4387,5.4354,5.4403,5.4486,5.4544,5.4561,5.4577,5.4629,5.4648,5.4415,5.4415,5.4415,0,5.3848,5.394,5.3925,5.3996,5.4026,5.3983,5.4065,5.4088,5.4138,5.4159,5.4122,5.4236,5.4255,5.4362,5.4399,5.442,5.444,5.4399,5.456,5.4576,5.459,5.4639,5.4659,5.4421,5.442,5.4419,5.4419,0,5.4027,5.4092,5.4153,5.4203,5.424,5.4316,5.431,5.4349,5.4332,5.4335,5.4422,5.4444,5.4496,5.452,5.4504,5.4624,5.4602,5.4564,5.4497,5.4617,5.4663,5.4682,5.4429,5.4427,5.4425,5.4424,0,0,5.4224,5.4263,5.4286,5.4307,5.4342,5.4391,5.4464,5.4515,5.4548,5.4583,5.4642,5.472,5.4684,5.4712,5.4698,5.4749,5.4865,5.4703,5.4704,5.4731,5.4996,5.5024,5.5046,5.4844,5.4848,5.4851,5.4992,0,5.4369,5.4497,5.4484,5.4605,5.4663,5.4622,5.4684,5.4712,5.4716,5.4764,5.4767,5.4822,5.4771,5.4787,5.4836,5.4841,5.4918,5.4831,5.4897,5.4899,5.4889,5.5071,5.5101,5.5234,5.501,5.5013,5.5016,0,5.4556,5.4598,5.4725,5.4749,5.4773,5.483,5.4875,5.4922,5.4951,5.495,5.4981,5.4958,5.5028,5.4961,5.5056,5.4997,5.5023,5.503,5.5034,5.5039,5.4964,5.5079,5.5276,5.5296,5.5044,5.5042,5.504,0,5.4685,5.4773,5.4859,5.4879,5.491,5.4951,5.4965,5.4991,5.5022,5.5061,5.508,5.5126,5.5152,5.5187,5.5176,5.5129,5.5273,5.5206,5.5273,5.5273,5.5304,5.5302,5.5507,5.5324,5.5323,5.5323,5.5322,0,5.4848,5.4926,5.4917,5.4971,5.5056,5.504,5.5125,5.5134,5.5157,5.5209,5.5176,5.5226,5.5209,5.5257,5.5249,5.5328,5.534,5.5339,5.5336,5.5342,5.5342,5.5358,5.5348,5.5328,5.5327,5.5326,5.5325,0,5.5006,5.5004,5.5095,5.5117,5.5124,5.5186,5.5203,5.5252,5.5253,5.5319,5.5334,5.5335,5.5389,5.5382,5.5443,5.5437,5.5535,5.5521,5.5526,5.5522,5.5589,5.5582,5.581,5.5839,5.5638,5.564,5.5642,0,5.511,5.5169,5.5197,5.523,5.5248,5.5302,5.5333,5.5319,5.5352,5.5389,5.5433,5.5484,5.5525,5.5614,5.5619,5.5664,5.565,5.5727,5.5657,5.566,5.565,5.5646,5.5651,5.5741,5.5743,5.5745,5.5747,0,5.5293,5.5289,5.5336,5.5383,5.5421,5.5457,5.5489,5.5518,5.5506,5.5545,5.5601,5.5632,5.5694,5.5745,5.5788,5.58,5.5771,5.5769,5.5786,5.5792,5.5792,5.5791,5.5562,5.5763,5.5762,5.576,5.5759,5.5759,5.5427,5.5477,5.5504,5.5557,5.5579,5.561,5.5656,5.5662,5.5709,5.5759,5.5747,5.5809,5.5834,5.5888,5.5905,5.5953,5.5924,5.595,5.5957,5.5963,5.597,5.5785,5.596,5.596,5.596,5.5959,5.5959,0,5.5607,5.5622,5.5671,5.5717,5.5758,5.5728,5.5761,5.5797,5.5853,5.5879,5.592,5.5982,5.6031,5.604,5.6085,5.6121,5.6109,5.6134,5.613,5.6133,5.5994,5.5973,5.6143,5.6143,5.6143,5.6143,5.6143,5.6143,5.5706,5.5788,5.5787,5.5879,5.5892,5.5954,5.5976,5.6002,5.6023,5.6095,5.6136,5.6141,5.6159,5.6206,5.6248,5.6249,5.6267,5.6297,5.6293,5.6162,5.6144,5.6126,5.6106,5.6301,5.6302,5.6428,5.6429,5.643]}]]